Retour au catalogue

CZ-4 DEB

ActifSSO
NORAD 29042·DEBRIS·🇨🇳 China

Lancé Sep 8, 2004 depuis Taiyuan Satellite Launch Center

Loading…

Prochains Passages (prochaines 24 heures)

TLE

VieillissantSource: Space-Track

Époque: Sep 6, 2026, 06:28 UTC

1 29042U 04035J   26249.26981304  .00001418  00000-0  89905-4 0  9994
2 29042  97.5382 261.6004 0012242  82.1963 278.0656 15.10465277723781

Suivez CZ-4 DEB en temps réel avec AllMySat

Download on the App Store